Flag for Australia Weather past 2 weeks in Wodonga, Victoria, Australia

Now
58 °F

Overcast.


Feels Like: 55 °F
Forecast: 40 / 57 °F
Wind: 15 mph from West

Location: Albury Aeroport Aws

Current Time: Sep 17, 2014 at 2:09:41 PM

Latest Report: Sep 17, 2014 at 12:00 PM


Visibility: N/A

Pressure: 29.94 "Hg

Humidity: 62%

Dew point: 45 °F

Location of WodongaLocation

Historic Weather in Wodonga — Graph

°F

Wodonga temperature yesterday

Maximum temperature yesterday: 65 °F (at 3:00 PM)
Minimum temperature yesterday: 47 °F (at 6:00 AM)
Average temperature yesterday: 56 °F

Past Weeks' High & Low Weather Summary

 TemperatureHumidityPressure
High69 °F (Sep 15, 2:00 PM)100% (Sep 9, 11:00 PM)30.46 "Hg (Sep 9, 11:00 PM)
Low32 °F (Sep 3, 6:00 AM)35% (Sep 6, 5:00 PM)29.63 "Hg (Sep 9, 8:00 PM)
Average52 °F74%30.10 "Hg
* Reported Sep 2 12:00 Noon — Sep 17 12:00 Noon, Wodonga, Weather by CustomWeather, © 2014

Note: Actual official high and low records may vary slightly from our data, if they occured in-between our weather recording intervals... More about our weather records

Advertising

Wodonga weather history for previous 24 hours

 ConditionsComfort  
Time TempWeatherWind HumidityBarometerVisibility
12:00 PM
Sep 17
58 °FOvercast.15 mph62%29.94 "HgN/A
11:00 AM55 °FCool.16 mph68%29.96 "HgN/A
9:00 AM53 °FScattered clouds.6 mph74%29.97 "HgN/A
8:00 AM50 °FCool.5 mph84%29.97 "HgN/A
6:00 AM46 °FPassing clouds.7 mph90%29.95 "HgN/A
5:00 AM47 °FCool.5 mph90%29.93 "HgN/A
3:00 AM47 °FCool.8 mph93%29.90 "HgN/A
2:00 AM48 °FCool.6 mph89%29.89 "HgN/A
12:00 AM50 °FCool.6 mph86%29.89 "HgN/A
11:00 PM
Sep 16
52 °FCool.6 mph82%29.89 "HgN/A
9:00 PM54 °FCool.15 mph81%29.86 "HgN/A
8:00 PM56 °FCool.13 mph84%29.85 "HgN/A
6:00 PM58 °FOvercast.9 mph78%29.82 "Hg6 mi
5:00 PM60 °FCool.12 mph72%29.80 "HgN/A
3:00 PM65 °FOvercast.7 mph64%29.78 "HgN/A
2:00 PM62 °FCool.5 mph68%29.78 "HgN/A
Weather by CustomWeather, © 2014

See weather overviewHow to use our weather pages